| time (UTC) | temp F | wind direction | speed MPH | gust MPH | rain 1hr in | rain 24hr in | rain mn in | humidity % | barometer mb |
| 20260508204520 | 63 | 143 | 2.0 | 11.0 | 0.00 | 0.00 | 0.00 | 32 | 1016.2 |
| 20260508203019 | 63 | 101 | 5.0 | 16.0 | 0.00 | 0.00 | 0.00 | 31 | 1016.1 |
| 20260508201521 | 63 | 38 | 10.0 | 22.0 | 0.00 | 0.00 | 0.00 | 33 | 1016.0 |
| 20260508200024 | 62 | 160 | 8.0 | 21.0 | 0.00 | 0.00 | 0.00 | 35 | 1016.2 |
| 20260508194518 | 61 | 91 | 7.0 | 20.0 | 0.00 | 0.00 | 0.00 | 35 | 1015.9 |
| 20260508193017 | 62 | 98 | 9.0 | 18.0 | 0.00 | 0.00 | 0.00 | 32 | 1015.8 |
| 20260508191520 | 61 | 93 | 7.0 | 21.0 | 0.00 | 0.00 | 0.00 | 32 | 1015.8 |
| 20260508190019 | 62 | 66 | 2.0 | 10.0 | 0.00 | 0.00 | 0.00 | 33 | 1015.6 |
| 20260508184521 | 63 | 116 | 4.0 | 13.0 | 0.00 | 0.00 | 0.00 | 35 | 1015.3 |
| 20260508183025 | 62 | 354 | 7.0 | 19.0 | 0.00 | 0.00 | 0.00 | 36 | 1015.2 |
| 20260508181515 | 62 | 68 | 6.0 | 11.0 | 0.00 | 0.00 | 0.00 | 37 | 1015.4 |
| 20260508180014 | 61 | 94 | 9.0 | 21.0 | 0.00 | 0.00 | 0.00 | 38 | 1015.8 |
| 20260508174507 | 60 | 88 | 5.0 | 24.0 | 0.00 | 0.00 | 0.00 | 42 | 1016.0 |
| 20260508173005 | 59 | 266 | 8.0 | 19.0 | 0.00 | 0.00 | 0.00 | 45 | 1015.9 |
| 20260508171504 | 59 | 11 | 6.0 | 21.0 | 0.00 | 0.00 | 0.00 | 46 | 1015.9 |
| 20260508170006 | 58 | 73 | 10.0 | 17.0 | 0.00 | 0.00 | 0.00 | 45 | 1016.0 |
| 20260508164600 | 58 | 63 | 5.0 | 21.0 | 0.00 | 0.00 | 0.00 | 46 | 1016.0 |
| 20260508163057 | 57 | 29 | 7.0 | 18.0 | 0.00 | 0.00 | 0.00 | 46 | 1016.1 |
| 20260508161601 | 57 | 132 | 6.0 | 15.0 | 0.00 | 0.00 | 0.00 | 45 | 1016.0 |
| 20260508160057 | 57 | 114 | 3.0 | 17.0 | 0.00 | 0.00 | 0.00 | 43 | 1015.9 |
| 20260508154610 | 56 | 122 | 4.0 | 10.0 | 0.00 | 0.00 | 0.00 | 42 | 1016.0 |
| 20260508153020 | 56 | 88 | 6.0 | 22.0 | 0.00 | 0.00 | 0.00 | 40 | 1016.0 |
| 20260508151520 | 56 | 59 | 8.0 | 17.0 | 0.00 | 0.00 | 0.00 | 40 | 1015.6 |
| 20260508150038 | 55 | 62 | 7.0 | 15.0 | 0.00 | 0.00 | 0.00 | 36 | 1015.6 |
| 20260508144518 | 55 | 83 | 7.0 | 14.0 | 0.00 | 0.00 | 0.00 | 34 | 1015.7 |
| 20260508143017 | 55 | 88 | 6.0 | 17.0 | 0.00 | 0.00 | 0.00 | 33 | 1015.6 |
| 20260508141518 | 55 | 67 | 6.0 | 20.0 | 0.00 | 0.00 | 0.00 | 31 | 1015.5 |
| 20260508140020 | 54 | 50 | 8.0 | 14.0 | 0.00 | 0.00 | 0.00 | 32 | 1015.3 |
| 20260508134506 | 52 | 85 | 4.0 | 11.0 | 0.00 | 0.00 | 0.00 | 37 | 1015.1 |
| 20260508133002 | 46 | 143 | 1.0 | 15.0 | 0.00 | 0.00 | 0.00 | 65 | 1015.0 |
| 20260508131605 | 41 | 290 | 1.0 | 4.0 | 0.00 | 0.00 | 0.00 | 80 | 1014.7 |
| 20260508124557 | 39 | 193 | 1.0 | 5.0 | 0.00 | 0.00 | 0.00 | 83 | 1014.6 |
| 20260508123056 | 39 | 228 | 1.0 | 3.0 | 0.00 | 0.00 | 0.00 | 84 | 1014.8 |
| 20260508121555 | 39 | 168 | 0.0 | 2.0 | 0.00 | 0.00 | 0.00 | 84 | 1014.8 |
| 20260508120054 | 39 | 165 | 0.0 | 5.0 | 0.00 | 0.00 | 0.00 | 85 | 1014.8 |
| 20260508114553 | 38 | 251 | 0.0 | 4.0 | 0.00 | 0.00 | 0.00 | 84 | 1014.8 |
| 20260508113052 | 38 | 125 | 1.0 | 3.0 | 0.00 | 0.00 | 0.00 | 84 | 1014.7 |
| 20260508111559 | 38 | 166 | 0.0 | 2.0 | 0.00 | 0.00 | 0.00 | 83 | 1014.6 |
| 20260508110047 | 39 | 201 | 0.0 | 2.0 | 0.00 | 0.00 | 0.00 | 82 | 1014.6 |
| 20260508104546 | 39 | 199 | 0.0 | 0.0 | 0.00 | 0.00 | 0.00 | 82 | 1014.5 |
| 20260508103049 | 39 | 199 | 0.0 | 3.0 | 0.00 | 0.00 | 0.00 | 82 | 1014.5 |
| 20260508101546 | 39 | 199 | 0.0 | 2.0 | 0.00 | 0.00 | 0.00 | 82 | 1014.5 |
| 20260508100040 | 39 | 199 | 1.0 | 3.0 | 0.00 | 0.00 | 0.00 | 80 | 1014.5 |
| 20260508094538 | 39 | 175 | 0.0 | 3.0 | 0.00 | 0.00 | 0.00 | 80 | 1014.5 |
| 20260508093037 | 40 | 176 | 0.0 | 2.0 | 0.00 | 0.00 | 0.00 | 79 | 1014.5 |
| 20260508091534 | 40 | 176 | 0.0 | 3.0 | 0.00 | 0.00 | 0.00 | 79 | 1014.5 |
| 20260508090036 | 40 | 172 | 0.0 | 3.0 | 0.00 | 0.00 | 0.00 | 78 | 1014.6 |
| 20260508084529 | 41 | 237 | 1.0 | 3.0 | 0.00 | 0.00 | 0.00 | 78 | 1014.7 |
| 20260508083027 | 41 | 195 | 0.0 | 2.0 | 0.00 | 0.00 | 0.00 | 77 | 1014.7 |
| 20260508081526 | 42 | 195 | 0.0 | 2.0 | 0.00 | 0.00 | 0.00 | 75 | 1014.7 |
| 20260508080049 | 42 | 194 | 0.0 | 2.0 | 0.00 | 0.00 | 0.00 | 75 | 1014.7 |
| 20260508074519 | 43 | 194 | 0.0 | 2.0 | 0.00 | 0.00 | 0.00 | 74 | 1014.7 |
| 20260508073017 | 43 | 194 | 0.0 | 2.0 | 0.00 | 0.00 | 0.00 | 73 | 1014.7 |
| 20260508071514 | 44 | 193 | 0.0 | 2.0 | 0.00 | 0.00 | 0.00 | 72 | 1014.7 |
| 20260508070020 | 45 | 193 | 0.0 | 1.0 | 0.00 | 0.00 | 0.00 | 72 | 1014.6 |
| 20260508064528 | 45 | 193 | 1.0 | 3.0 | 0.00 | 0.00 | 0.00 | 71 | 1014.7 |
| 20260508063006 | 46 | 194 | 0.0 | 1.0 | 0.00 | 0.00 | 0.00 | 69 | 1014.6 |
| 20260508061504 | 46 | 194 | 0.0 | 1.0 | 0.00 | 0.00 | 0.00 | 70 | 1014.5 |
| 20260508060005 | 47 | 194 | 0.0 | 1.0 | 0.00 | 0.00 | 0.00 | 68 | 1014.4 |
| 20260508054504 | 48 | 194 | 0.0 | 3.0 | 0.00 | 0.00 | 0.00 | 66 | 1014.4 |
| 20260508053003 | 49 | 193 | 0.0 | 2.0 | 0.00 | 0.00 | 0.00 | 65 | 1014.4 |
| 20260508051502 | 50 | 193 | 0.0 | 2.0 | 0.00 | 0.00 | 0.00 | 65 | 1014.3 |
| 20260508050005 | 51 | 191 | 1.0 | 3.0 | 0.00 | 0.00 | 0.00 | 63 | 1014.3 |
| 20260508044503 | 52 | 203 | 0.0 | 1.0 | 0.00 | 0.00 | 0.00 | 62 | 1014.1 |
| 20260508043001 | 54 | 202 | 0.0 | 3.0 | 0.00 | 0.00 | 0.00 | 61 | 1014.2 |
| 20260508041503 | 55 | 198 | 0.0 | 3.0 | 0.00 | 0.00 | 0.00 | 58 | 1014.1 |
| 20260508040114 | 57 | 198 | 0.0 | 1.0 | 0.00 | 0.00 | 0.00 | 57 | 1013.9 |
| 20260508034600 | 58 | 195 | 1.0 | 6.0 | 0.00 | 0.00 | 0.00 | 50 | 1013.7 |
| 20260508033059 | 60 | 125 | 0.0 | 2.0 | 0.00 | 0.00 | 0.00 | 44 | 1013.5 |
| 20260508031559 | 61 | 125 | 0.0 | 1.0 | 0.00 | 0.00 | 0.00 | 46 | 1013.5 |
| 20260508030059 | 63 | 126 | 0.0 | 1.0 | 0.00 | 0.00 | 0.00 | 43 | 1013.3 |
| 20260508024602 | 65 | 125 | 1.0 | 3.0 | 0.00 | 0.00 | 0.00 | 37 | 1013.0 |
| 20260508023058 | 67 | 174 | 1.0 | 3.0 | 0.00 | 0.00 | 0.00 | 34 | 1012.7 |
| 20260508021558 | 68 | 195 | 0.0 | 9.0 | 0.00 | 0.00 | 0.00 | 36 | 1012.6 |
| 20260508020059 | 69 | 163 | 3.0 | 10.0 | 0.00 | 0.00 | 0.00 | 39 | 1012.6 |
| 20260508014557 | 71 | 191 | 1.0 | 8.0 | 0.00 | 0.00 | 0.00 | 40 | 1012.4 |
| 20260508013056 | 73 | 218 | 3.0 | 8.0 | 0.00 | 0.00 | 0.00 | 39 | 1012.2 |
| 20260508011555 | 75 | 171 | 2.0 | 8.0 | 0.00 | 0.00 | 0.00 | 39 | 1012.1 |
| 20260508010055 | 74 | 173 | 1.0 | 5.0 | 0.00 | 0.00 | 0.00 | 40 | 1012.1 |
| 20260508004555 | 72 | 156 | 1.0 | 5.0 | 0.00 | 0.00 | 0.00 | 41 | 1012.1 |
| 20260508003052 | 72 | 66 | 3.0 | 10.0 | 0.00 | 0.00 | 0.00 | 41 | 1012.0 |
| 20260508001549 | 74 | 69 | 4.0 | 9.0 | 0.00 | 0.00 | 0.00 | 39 | 1012.0 |
| 20260508000054 | 75 | 350 | 2.0 | 10.0 | 0.00 | 0.00 | 0.00 | 38 | 1011.9 |
| 20260507234554 | 75 | 283 | 1.0 | 7.0 | 0.00 | 0.00 | 0.00 | 36 | 1011.9 |
| 20260507233105 | 74 | 4 | 1.0 | 10.0 | 0.00 | 0.00 | 0.00 | 37 | 1011.9 |
| 20260507231545 | 74 | 139 | 2.0 | 9.0 | 0.00 | 0.00 | 0.00 | 37 | 1012.0 |
| 20260507230047 | 74 | 84 | 2.0 | 6.0 | 0.00 | 0.00 | 0.00 | 35 | 1012.1 |
| 20260507224541 | 74 | 51 | 3.0 | 10.0 | 0.00 | 0.00 | 0.00 | 35 | 1012.3 |
| 20260507223053 | 74 | 21 | 2.0 | 8.0 | 0.00 | 0.00 | 0.00 | 34 | 1012.4 |
| 20260507221536 | 73 | 304 | 4.0 | 10.0 | 0.00 | 0.00 | 0.00 | 36 | 1012.6 |
| 20260507220038 | 73 | 29 | 4.0 | 9.0 | 0.00 | 0.00 | 0.00 | 36 | 1012.9 |
| 20260507214531 | 73 | 144 | 1.0 | 6.0 | 0.00 | 0.00 | 0.00 | 37 | 1013.0 |
| 20260507213032 | 72 | 317 | 1.0 | 7.0 | 0.00 | 0.00 | 0.00 | 37 | 1013.3 |
| 20260507211533 | 71 | 271 | 3.0 | 7.0 | 0.00 | 0.00 | 0.00 | 40 | 1013.6 |
| 20260507210028 | 71 | 316 | 2.0 | 6.0 | 0.00 | 0.00 | 0.00 | 40 | 1013.9 |